Temperature
13 12 12 11 11 10 10 9 9 9 9 8 8 8 8 7 7 7 6 6 6 5 5 4 4 3 3 2 2 1 0 -1 -2 -1 -1 -1 -2 -2 -2 -2 -3 -3 -3
13 12 12 11 10 10 9 9 9 8 8 8 8 8 7 7 7 6 6 6 5 5 4 4 3 3 2 2 1 0 -0 -1 -2 -2 -2 -2 -2 -3 -3 -3 -3 -4 -4
13 12 11 11 10 10 9 9 8 8 8 8 7 7 7 6 6 6 5 5 4 4 4 3 3 2 2 1 0 -0 -1 -1 -2 -2 -3 -3 -3 -3 -4 -4 -4 -4 -4
12 12 11 11 10 10 9 8 8 8 7 7 7 7 6 6 6 5 5 4 4 3 3 2 2 1 1 0 -0 -1 -1 -2 -2 -3 -3 -4 -4 -4 -4 -5 -5 -5 -5
12 11 11 10 10 9 9 8 8 7 7 7 6 6 6 5 5 5 4 4 3 3 2 2 1 0 -0 -1 -1 -2 -2 -3 -3 -4 -4 -4 -5 -5 -5 -5 -6 -6 -6
11 11 10 10 9 9 8 8 7 7 6 6 6 6 5 5 4 4 3 3 2 2 1 1 0 -0 -1 -1 -2 -2 -3 -3 -4 -4 -5 -5 -5 -5 -5 -6 -6 -6 -6
11 10 10 9 9 8 8 7 7 6 6 6 5 5 4 4 4 3 2 2 1 1 0 -0 -1 -1 -1 -2 -2 -3 -3 -4 -4 -5 -5 -5 -6 -6 -6 -6 -6 -6 -6
10 10 9 9 8 8 7 7 6 6 5 5 5 4 4 3 3 2 1 1 0 -0 -1 -1 -1 -2 -2 -3 -3 -4 -4 -4 -4 -5 -5 -6 -6 -6 -6 -6 -6 -6 -6
10 9 9 8 8 7 7 6 6 5 5 4 4 3 3 2 2 1 0 -0 -0 -1 -1 -2 -2 -3 -3 -4 -4 -4 -4 -4 -5 -5 -6 -6 -6 -6 -6 -6 -7 -7 -7
9 9 8 8 7 6 6 5 5 4 4 3 3 2 2 2 1 0 -0 -1 -1 -2 -2 -2 -3 -3 -4 -4 -5 -5 -5 -5 -5 -6 -6 -6 -6 -6 -7 -7 -7 -7 -7
9 8 7 7 6 6 5 5 4 4 3 3 2 2 1 1 0 -1 -1 -2 -2 -3 -3 -3 -4 -4 -5 -5 -5 -5 -6 -6 -6 -6 -7 -7 -7 -7 -7 -7 -7 -8 -8
8 7 6 6 5 5 4 4 3 3 2 2 1 1 0 -0 -1 -2 -2 -3 -3 -4 -4 -4 -5 -5 -5 -5 -5 -6 -6 -6 -7 -7 -7 -7 -7 -7 -7 -8 -8 -8 -8
7 6 6 5 4 4 3 3 2 2 1 1 0 -0 -1 -1 -2 -2 -3 -3 -4 -4 -5 -5 -5 -5 -6 -6 -6 -7 -7 -7 -7 -8 -8 -8 -8 -8 -8 -8 -8 -8 -8
6 5 5 4 4 3 2 2 2 1 0 -0 -1 -2 -2 -2 -3 -3 -3 -4 -4 -5 -5 -5 -6 -6 -6 -7 -7 -7 -8 -8 -8 -9 -9 -8 -8 -9 -9 -9 -9 -9 -9
5 4 4 3 3 2 2 1 1 -0 -1 -2 -2 -3 -3 -3 -4 -4 -5 -5 -5 -6 -6 -6 -6 -7 -7 -7 -8 -8 -8 -9 -9 -9 -9 -9 -9 -9 -9 -9 -9 -9 -9
4 3 3 2 2 1 1 0 -0 -1 -2 -2 -3 -3 -4 -4 -5 -5 -5 -6 -6 -6 -7 -7 -7 -8 -8 -8 -9 -9 -9 -9 -9 -9 -10 -10 -10 -10 -10 -10 -10 -10 -10
3 3 2 1 1 0 -0 -1 -1 -2 -2 -3 -3 -4 -5 -5 -5 -6 -6 -7 -7 -7 -7 -8 -8 -9 -9 -9 -10 -10 -10 -10 -10 -10 -10 -10 -10 -10 -10 -10 -10 -10 -10
2 1 1 0 -0 -1 -1 -2 -2 -3 -3 -3 -4 -4 -5 -5 -6 -6 -7 -7 -8 -8 -8 -9 -9 -9 -10 -10 -10 -10 -10 -10 -10 -10 -10 -10 -10 -11 -11 -11 -11 -11 -11
1 1 0 -0 -1 -2 -2 -3 -3 -4 -4 -5 -5 -5 -6 -6 -7 -7 -8 -8 -8 -9 -9 -9 -10 -10 -10 -10 -11 -11 -11 -11 -11 -11 -11 -11 -11 -11 -11 -11 -11 -11 -11
0 -0 -1 -1 -2 -2 -3 -4 -4 -5 -5 -6 -6 -6 -7 -7 -8 -8 -8 -8 -9 -9 -9 -10 -10 -10 -11 -11 -11 -11 -11 -11 -11 -11 -11 -11 -11 -11 -11 -11 -11 -11 -11
-1 -1 -2 -2 -3 -3 -4 -5 -5 -6 -6 -7 -7 -7 -8 -8 -8 -9 -9 -9 -9 -10 -10 -10 -11 -11 -11 -11 -11 -12 -12 -12 -12 -12 -11 -11 -12 -12 -12 -12 -12 -12 -12
-2 -2 -3 -3 -4 -5 -5 -6 -6 -7 -7 -8 -8 -8 -8 -9 -9 -9 -9 -9 -10 -10 -10 -11 -11 -11 -11 -12 -12 -12 -12 -12 -12 -12 -12 -12 -12 -12 -12 -12 -12 -12 -12
-3 -3 -4 -4 -5 -6 -6 -6 -7 -7 -8 -8 -8 -8 -9 -9 -9 -9 -10 -10 -10 -11 -11 -11 -11 -11 -12 -12 -12 -12 -12 -12 -12 -12 -12 -12 -12 -12 -12 -12 -12 -12 -12
-4 -4 -5 -5 -6 -6 -7 -7 -7 -8 -8 -9 -9 -9 -9 -9 -10 -10 -10 -10 -11 -11 -11 -11 -12 -12 -12 -12 -12 -12 -12 -12 -12 -12 -12 -12 -12 -12 -12 -12 -12 -12 -12
-5 -5 -6 -6 -7 -7 -7 -8 -8 -8 -9 -9 -9 -9 -10 -10 -10 -10 -11 -11 -11 -11 -11 -11 -12 -12 -12 -12 -12 -12 -12 -12 -12 -12 -12 -12 -12 -12 -12 -12 -12 -12 -12
-6 -6 -6 -7 -7 -8 -8 -8 -8 -9 -9 -9 -10 -10 -10 -10 -10 -11 -11 -11 -11 -11 -11 -11 -11 -12 -12 -12 -12 -12 -12 -12 -12 -12 -12 -12 -12 -12 -12 -12 -12 -12 -12
Wind_Speed
9 9 9 9 9 9 9 10 9 8 9 9 9 9 9 8 8 8 8 7 8 7 7 7 9 7 6 6 5 6 6 6 13 11 6 5 6 9 12 14 16 15 17
8 8 8 8 8 8 9 8 8 9 9 9 9 9 9 8 8 9 9 8 8 9 8 8 9 7 7 7 6 7 7 8 10 15 9 6 8 8 9 9 11 14 14
7 8 7 7 8 8 8 8 8 8 8 8 8 9 9 8 8 9 9 8 8 9 8 9 9 8 9 7 8 8 8 8 8 11 12 7 6 6 8 9 10 9 13
6 7 8 8 8 8 7 7 7 7 8 8 8 8 8 8 8 7 7 8 8 8 8 9 9 9 10 9 8 9 8 8 8 10 11 9 7 6 6 7 8 7 9
6 7 7 6 6 6 6 6 6 6 7 7 7 6 6 6 7 7 7 8 8 8 8 8 9 11 14 12 10 8 8 8 8 9 10 9 8 6 6 6 10 9 8
6 6 5 5 5 5 5 5 5 5 5 5 6 6 6 6 9 11 9 7 7 8 8 8 9 11 15 19 20 19 15 11 9 9 9 10 11 9 8 9 9 10 8
5 5 4 5 5 5 4 4 5 5 5 5 6 6 7 8 11 12 12 7 7 7 8 8 8 9 13 9 14 19 18 21 20 14 12 12 11 10 9 10 10 10 11
5 4 4 4 4 4 4 4 5 4 5 5 6 6 6 7 11 12 12 8 6 7 8 8 9 9 9 10 9 10 10 12 15 12 11 12 12 10 10 11 11 10 9
5 5 5 5 5 4 4 4 3 3 4 4 5 5 6 7 10 12 11 5 6 8 8 8 8 8 15 18 12 10 11 10 16 21 22 21 23 23 17 9 7 8 9
5 5 4 4 5 5 4 3 3 3 4 4 4 5 6 6 10 11 11 4 6 6 6 7 12 13 17 19 11 9 11 11 10 11 13 16 14 15 19 10 6 8 8
4 3 3 3 3 3 3 2 2 2 2 3 4 4 5 6 8 11 11 5 6 6 6 6 7 16 18 19 17 10 14 15 9 8 8 8 7 7 7 7 6 7 7
4 3 3 2 2 2 2 1 2 2 2 3 3 4 4 5 7 9 13 12 11 7 6 6 8 16 18 19 15 15 21 18 7 6 7 7 6 6 6 6 6 7 7
4 3 2 2 1 2 2 2 1 2 2 3 3 5 5 4 6 12 13 14 15 9 7 12 15 18 17 12 14 18 15 7 6 7 8 7 6 6 5 4 5 6 7
4 3 2 2 1 1 1 2 2 2 3 4 4 5 5 5 5 5 6 8 11 10 9 11 16 16 12 12 12 10 6 7 7 7 7 6 5 4 4 4 4 4 5
4 3 2 2 2 1 1 2 3 4 4 5 5 5 5 6 8 12 9 6 5 7 7 5 4 4 4 5 6 6 5 6 7 6 6 6 6 5 5 4 4 3 4
3 2 2 2 1 1 1 3 4 6 8 10 10 9 8 11 15 16 16 16 16 16 10 4 5 5 6 6 7 6 6 6 7 7 6 6 6 5 5 4 4 4 5
3 3 2 2 1 1 2 2 4 6 7 9 10 12 12 14 15 15 15 15 15 14 6 5 6 6 6 6 6 6 7 7 6 6 6 6 5 5 5 5 5 4 5
3 2 1 2 2 2 2 3 3 5 6 5 7 11 13 14 14 14 15 12 8 7 5 6 7 7 7 7 7 7 7 6 6 6 5 5 5 5 5 5 5 5 5
2 2 1 2 2 2 2 3 4 5 6 6 5 7 11 12 13 14 12 6 6 6 6 6 6 7 7 7 7 7 7 7 6 6 5 5 5 5 5 5 5 8 6
2 2 2 1 1 2 3 3 4 5 5 6 6 6 6 7 6 7 6 6 6 7 7 7 7 7 7 6 7 6 6 6 6 6 5 5 5 5 6 6 5 5 5
2 2 3 2 2 3 4 4 5 5 6 7 7 9 12 7 6 7 7 6 7 7 7 7 7 7 7 6 6 7 7 7 6 6 6 5 5 5 5 5 5 5 5
2 2 2 2 3 3 4 4 5 5 6 7 7 9 13 8 6 7 7 7 7 7 7 7 7 7 7 7 7 7 7 8 7 6 6 6 5 6 6 5 5 4 4
1 2 2 3 3 6 6 4 5 6 7 7 7 8 7 7 7 7 8 7 7 7 7 7 8 8 7 7 7 7 8 8 7 7 7 7 6 6 6 6 6 5 5
2 2 3 4 4 4 5 5 6 6 7 7 7 7 7 7 8 9 9 8 8 8 7 7 8 10 11 10 9 8 9 10 9 8 9 9 8 7 6 6 6 6 6
2 3 3 4 4 5 5 6 6 7 7 8 8 8 8 8 9 9 8 8 9 9 9 9 8 9 11 12 12 11 15 18 16 11 8 8 9 8 7 7 6 6 6
2 3 4 4 5 5 6 6 7 7 8 8 8 8 8 9 9 9 9 8 8 9 9 9 10 12 13 12 14 17 19 19 19 18 10 7 8 8 8 7 8 7 7
Wind_Direction
205 205 206 206 205 203 207 210 208 205 201 202 203 205 207 208 205 206 214 213 220 231 233 234 242 240 242 243 240 241 243 244 273 284 264 261 259 266 281 280 280 281 284
204 201 206 205 200 203 210 209 203 203 202 203 201 204 209 210 206 209 218 219 223 232 238 240 248 249 247 248 246 249 252 247 262 283 287 275 262 262 266 268 280 283 279
199 201 205 205 203 208 211 206 201 201 202 200 199 205 210 211 211 214 217 223 227 233 236 239 247 247 254 253 250 254 257 263 258 273 285 281 272 269 272 273 273 274 279
194 199 207 209 208 210 208 203 201 200 200 202 204 207 210 211 214 217 218 224 231 237 237 238 244 244 251 254 258 256 259 263 265 270 281 284 278 269 265 275 283 267 272
190 201 212 211 205 202 201 201 198 198 202 200 201 208 211 213 220 219 222 228 233 241 245 245 247 254 259 264 268 262 257 263 269 275 281 287 285 282 272 270 283 284 270
191 205 205 196 194 198 199 195 193 197 198 196 205 210 217 229 239 240 241 234 234 239 249 253 257 264 270 276 280 282 280 278 276 273 279 282 284 277 275 274 281 289 288
191 199 196 191 195 199 193 189 197 201 201 209 216 218 228 240 249 254 255 252 241 242 247 255 265 267 276 270 279 284 284 283 282 281 279 278 280 278 276 276 272 273 278
187 195 194 188 193 190 184 197 205 202 207 216 224 227 234 248 257 263 265 260 250 249 249 250 255 261 267 276 268 268 265 269 274 276 268 270 271 271 264 269 275 277 272
193 199 195 186 186 186 196 208 209 206 219 223 226 229 236 254 262 268 272 260 256 257 255 252 257 260 276 286 285 277 276 274 281 282 281 283 286 290 290 286 282 285 288
200 196 189 183 184 194 204 209 210 211 226 231 242 239 241 252 266 273 278 264 262 264 261 257 269 276 284 289 284 278 281 280 278 282 283 285 285 285 289 282 269 276 283
181 169 169 175 183 191 191 196 203 217 230 243 253 258 253 259 273 278 282 276 261 263 263 260 262 283 289 291 291 284 286 293 287 283 282 279 277 273 273 267 254 255 267
148 151 160 166 171 161 167 195 201 205 234 254 263 273 266 266 275 280 283 285 285 275 269 262 267 286 290 292 295 294 298 303 299 293 287 283 279 274 270 265 260 254 251
142 154 159 152 154 162 176 197 220 220 237 259 261 270 275 267 271 283 287 289 290 289 278 283 289 293 297 297 296 298 303 302 293 289 287 283 275 269 267 269 269 268 269
148 155 152 152 165 185 197 202 216 231 245 259 265 271 277 277 270 268 268 278 284 287 285 288 295 298 299 297 298 299 290 279 283 278 278 277 273 268 265 264 272 279 281
146 153 157 169 184 214 239 235 238 234 242 257 255 254 266 274 275 286 289 276 268 268 287 281 279 286 283 281 282 278 275 282 288 278 275 280 280 278 275 268 267 273 271
154 166 177 187 201 219 260 300 291 283 287 288 286 284 281 285 294 298 300 301 302 301 303 293 283 277 278 281 283 283 280 279 278 276 276 275 276 277 279 277 274 269 275
166 178 185 195 215 240 258 276 299 307 301 299 297 298 298 299 301 302 304 305 305 307 300 284 280 278 277 277 276 277 279 279 277 276 276 273 272 272 273 276 277 275 276
158 190 206 207 220 235 250 263 273 286 299 298 298 301 304 304 304 306 307 311 303 298 275 274 275 275 275 274 274 275 277 277 275 272 271 269 266 267 270 271 271 269 275
165 191 205 210 223 243 261 271 274 277 281 290 295 299 304 305 305 303 306 295 283 280 275 274 273 274 274 274 274 273 272 274 274 272 270 264 258 258 264 267 268 276 278
185 245 270 234 233 265 273 273 276 277 281 285 286 289 295 296 290 291 289 277 275 276 275 274 274 274 273 272 272 273 273 272 271 268 267 263 257 254 259 263 263 266 266
191 233 286 291 259 263 266 267 271 275 279 282 282 289 297 294 286 283 283 279 274 275 275 276 276 275 273 272 270 268 268 270 266 262 261 258 254 256 257 256 256 259 264
198 219 243 257 267 270 274 270 273 277 279 283 286 292 299 297 285 283 282 280 276 272 271 272 272 270 267 267 268 269 269 270 268 262 258 254 251 254 254 252 251 255 260
211 246 271 275 274 286 294 283 279 278 279 281 285 290 292 288 285 284 284 284 281 278 275 272 273 273 270 267 264 262 263 265 263 259 258 257 253 250 248 246 246 251 254
220 246 264 276 280 277 278 279 278 279 280 282 284 285 284 283 283 284 284 283 281 280 277 274 272 272 272 273 271 265 262 263 260 254 249 250 250 248 244 241 241 244 248
240 258 267 271 276 278 280 282 282 282 283 286 286 285 284 284 284 284 283 281 281 280 278 277 276 275 274 271 271 270 273 274 273 264 247 243 242 238 237 237 237 240 242
262 270 274 274 273 275 277 280 282 283 283 285 284 282 282 283 283 283 282 281 280 281 281 279 274 272 273 275 274 275 277 277 275 274 263 244 236 235 231 232 232 233 236
Height
1474 1476 1477 1478 1480 1482 1483 1484 1486 1487 1488 1489 1490 1490 1491 1491 1491 1490 1489 1489 1488 1487 1486 1484 1483 1481 1479 1477 1475 1472 1470 1466 1458 1451 1452 1451 1449 1446 1444 1441 1438 1434 1431
1470 1471 1472 1473 1475 1476 1477 1478 1480 1481 1482 1483 1484 1484 1484 1484 1484 1483 1483 1482 1481 1480 1479 1478 1476 1474 1472 1470 1468 1465 1462 1459 1453 1445 1442 1442 1440 1438 1435 1432 1429 1427 1423
1465 1466 1467 1468 1469 1470 1471 1472 1474 1475 1476 1477 1477 1477 1477 1477 1477 1477 1476 1475 1474 1473 1472 1471 1469 1467 1464 1463 1460 1457 1454 1451 1447 1441 1435 1434 1431 1430 1427 1423 1421 1418 1415
1461 1461 1462 1463 1464 1465 1466 1467 1468 1469 1470 1470 1471 1471 1471 1471 1471 1470 1469 1468 1467 1466 1465 1463 1462 1460 1457 1455 1452 1449 1446 1443 1439 1434 1429 1426 1423 1422 1419 1415 1411 1409 1406
1456 1456 1457 1458 1459 1460 1461 1461 1462 1463 1464 1464 1465 1465 1465 1464 1464 1463 1462 1461 1460 1458 1457 1456 1454 1452 1449 1447 1444 1441 1438 1435 1431 1427 1422 1419 1416 1414 1411 1408 1404 1400 1396
1452 1452 1453 1454 1454 1455 1455 1456 1457 1457 1458 1458 1458 1458 1458 1458 1457 1456 1455 1454 1452 1451 1449 1448 1446 1444 1442 1439 1437 1434 1432 1428 1424 1420 1415 1412 1408 1406 1403 1400 1397 1392 1387
1448 1448 1448 1449 1450 1450 1451 1451 1451 1452 1452 1452 1452 1452 1451 1451 1451 1450 1448 1447 1445 1443 1441 1439 1437 1436 1433 1431 1428 1425 1423 1420 1418 1414 1409 1405 1401 1399 1396 1392 1389 1386 1381
1443 1444 1444 1445 1445 1445 1446 1446 1446 1446 1446 1446 1446 1445 1445 1444 1444 1442 1441 1439 1437 1435 1434 1432 1429 1427 1425 1422 1418 1415 1413 1411 1409 1405 1401 1397 1394 1391 1389 1385 1382 1377 1374
1439 1439 1440 1440 1440 1441 1441 1441 1441 1441 1440 1440 1439 1439 1438 1437 1437 1435 1434 1431 1429 1427 1426 1424 1422 1419 1417 1415 1411 1407 1403 1401 1399 1396 1393 1390 1387 1384 1382 1378 1374 1371 1366
1435 1435 1436 1436 1436 1436 1436 1436 1435 1435 1434 1434 1433 1432 1431 1430 1429 1428 1426 1424 1421 1419 1417 1416 1414 1412 1409 1406 1403 1399 1395 1391 1389 1386 1383 1380 1378 1375 1373 1371 1368 1365 1361
1431 1431 1431 1432 1431 1431 1431 1431 1430 1429 1429 1428 1427 1426 1425 1424 1422 1421 1419 1417 1414 1411 1409 1407 1405 1403 1401 1398 1396 1392 1388 1385 1381 1378 1374 1371 1369 1367 1365 1363 1361 1359 1356
1426 1427 1427 1427 1427 1426 1426 1425 1425 1424 1422 1421 1420 1419 1418 1417 1416 1414 1412 1410 1408 1405 1402 1399 1397 1395 1392 1390 1387 1384 1381 1378 1374 1370 1366 1363 1361 1359 1357 1356 1354 1352 1350
1422 1422 1422 1422 1422 1421 1421 1420 1419 1418 1416 1415 1413 1412 1410 1410 1408 1407 1405 1403 1400 1398 1394 1392 1390 1387 1384 1381 1379 1376 1374 1370 1366 1363 1359 1357 1355 1353 1351 1349 1347 1345 1343
1417 1417 1417 1417 1417 1416 1416 1415 1413 1412 1411 1409 1407 1405 1404 1402 1401 1399 1397 1395 1392 1390 1387 1384 1382 1379 1377 1374 1371 1368 1366 1363 1359 1356 1353 1351 1348 1346 1344 1343 1341 1339 1337
1412 1412 1412 1412 1411 1411 1410 1409 1408 1407 1406 1404 1402 1400 1397 1395 1394 1393 1391 1388 1385 1383 1379 1376 1373 1371 1368 1365 1363 1360 1358 1355 1352 1350 1347 1345 1343 1341 1339 1338 1336 1334 1332
1408 1407 1407 1407 1406 1405 1404 1403 1402 1402 1400 1398 1396 1395 1392 1390 1388 1386 1384 1381 1378 1376 1373 1369 1366 1363 1361 1358 1355 1353 1351 1348 1346 1344 1341 1339 1337 1335 1334 1332 1331 1329 1327
1403 1403 1402 1402 1401 1400 1398 1397 1395 1394 1394 1392 1390 1388 1386 1383 1381 1378 1376 1373 1371 1368 1365 1362 1359 1356 1354 1351 1348 1346 1344 1342 1340 1337 1335 1333 1332 1330 1329 1327 1326 1324 1323
1399 1398 1397 1396 1395 1394 1393 1391 1389 1387 1385 1383 1383 1381 1378 1376 1373 1371 1368 1365 1362 1360 1358 1355 1352 1349 1347 1344 1342 1339 1337 1335 1333 1331 1329 1328 1326 1325 1324 1322 1321 1320 1318
1394 1393 1392 1391 1390 1389 1388 1386 1384 1382 1379 1377 1375 1373 1371 1368 1366 1364 1361 1358 1355 1352 1350 1347 1345 1342 1340 1337 1335 1332 1330 1328 1326 1324 1323 1322 1321 1320 1319 1318 1316 1315 1314
1389 1388 1387 1386 1385 1383 1382 1380 1378 1376 1373 1371 1368 1366 1364 1361 1358 1356 1354 1351 1348 1345 1343 1340 1338 1335 1333 1330 1328 1325 1323 1321 1320 1318 1317 1316 1315 1314 1313 1312 1312 1311 1310
1384 1383 1382 1381 1379 1378 1376 1374 1372 1370 1367 1365 1362 1360 1358 1355 1352 1349 1347 1344 1341 1338 1336 1333 1330 1328 1325 1323 1321 1318 1316 1315 1313 1312 1311 1310 1309 1309 1308 1307 1307 1306 1305
1379 1378 1376 1375 1373 1372 1370 1368 1366 1364 1361 1358 1355 1353 1351 1349 1345 1342 1339 1337 1334 1331 1328 1325 1323 1320 1318 1316 1314 1311 1309 1308 1307 1306 1305 1304 1303 1303 1302 1302 1302 1302 1301
1374 1373 1371 1370 1368 1366 1364 1362 1360 1358 1355 1352 1349 1346 1344 1341 1338 1335 1332 1329 1326 1323 1321 1318 1315 1312 1310 1308 1307 1305 1303 1301 1300 1300 1299 1298 1297 1297 1297 1297 1297 1297 1296
1369 1367 1366 1364 1362 1360 1358 1356 1354 1351 1348 1346 1343 1340 1337 1334 1331 1327 1324 1321 1318 1315 1313 1310 1307 1305 1303 1301 1299 1297 1296 1294 1293 1293 1292 1292 1291 1291 1291 1291 1291 1292 1292
1364 1362 1360 1358 1356 1354 1352 1350 1347 1344 1342 1339 1336 1333 1330 1326 1323 1320 1317 1314 1311 1308 1305 1303 1300 1297 1295 1293 1291 1290 1288 1287 1287 1286 1286 1286 1285 1285 1285 1286 1286 1286 1287
1359 1357 1355 1353 1351 1348 1346 1343 1341 1338 1335 1332 1329 1326 1322 1319 1316 1312 1309 1306 1303 1300 1297 1294 1292 1290 1287 1285 1283 1282 1281 1280 1280 1280 1280 1279 1279 1279 1279 1280 1280 1281 1282